This demonstration page uses our WeatherBlox Daily Observations layout. Learn more.

40.92945, -100.16068

Hourly Observations for July 15, 2015

Temp ( °F °C ) Dew Point ( °F °C ) Humidity (%) Winds ( mph kmh ) Pressure ( in mb ) Visibility ( mi km ) Precip ( " mm )
12:15 am 00:15 Clear 74 23.5 61 16 63 63 NE 12 19 29.8 1009 10 16.0934 N/A
12:35 am 00:35 Clear 75 24 62 16.7 64 64 NE 13 20 29.8 1009 10 16.0934 N/A
12:55 am 00:55 Clear 76 24.5 63 17.1 63 63 NE 14 22 29.8 1009 10 16.0934 N/A
1:15 am 01:15 Clear 75 23.9 62 16.6 64 64 NE 13 20 29.8 1009 10 16.0934 N/A
1:35 am 01:35 Clear 75 24 60 15.4 59 59 NNE 10 17 29.8 1009 10 16.0934 N/A
1:55 am 01:55 Clear 75 24 58 14.7 56 56 WNW 12 19 29.8 1009 10 16.0934 N/A
2:15 am 02:15 Clear 74 23.1 60 15.6 63 63 NW 10 17 29.8 1009 10 16.0934 N/A
2:35 am 02:35 Partly Cloudy 74 23.4 60 15.5 61 61 N 8 13 29.8 1009 10 16.0934 N/A
2:55 am 02:55 Clear 74 23.1 61 16.2 65 65 N 8 13 29.8 1009 10 16.0934 N/A
3:15 am 03:15 Partly Cloudy 74 23.1 62 16.6 67 67 N 5 7 29.8 1009 10 16.0934 N/A
3:35 am 03:35 Partly Cloudy 74 23.1 64 17.7 72 72 NE 6 9 29.8 1009 10 16.0934 N/A
3:55 am 03:55 Mostly Cloudy with Light Rain 74 23.1 65 18.5 75 75 ESE 6 9 29.8 1009 10 16.0934 N/A
4:15 am 04:15 Cloudy with Heavy Rain 72 22.1 67 19.2 84 84 S 10 17 29.83 1010 7 11.26538 0.03 0.762
4:35 am 04:35 Cloudy with Thunderstorms 69 20.7 66 19 90 90 WSW 8 13 29.85 1011 5 8.0467 0.09 2.286
4:55 am 04:55 Cloudy with Nearby Thunderstorms 68 20.1 66 18.8 92 92 W 12 19 29.85 1011 7 11.26538 0.18 4.572
5:15 am 05:15 Cloudy with Light Rain 67 19.7 65 18.6 93 93 WSW 7 11 29.83 1010 7 11.26538 0.02 0.508
5:35 am 05:35 Cloudy 68 20 66 19 94 94 NW 3 6 29.83 1010 10 16.0934 0.03 0.762
5:55 am 05:55 Partly Cloudy with Light Rain 67 19.7 66 18.7 94 94 N 3 6 29.83 1010 10 16.0934 0.04 1.016
6:15 am 06:15 Clear with Light Rain 67 19.7 66 18.8 95 95 N 3 6 29.83 1010 7 11.26538 N/A
6:35 am 06:35 Mostly Cloudy with Light Rain 67 19.7 66 18.9 95 95 NNE 6 9 29.83 1010 7 11.26538 N/A
6:55 am 06:55 Mostly Cloudy with Rain 68 19.8 66 19 95 95 NE 7 11 29.83 1010 7 11.26538 0 0
7:15 am 07:15 Sunny 68 20 67 19.2 95 95 NE 7 11 29.83 1010 10 16.0934 N/A
7:35 am 07:35 Partly Cloudy 68 20.1 67 19.3 95 95 NNE 9 15 29.83 1010 10 16.0934 N/A
7:55 am 07:55 Partly Cloudy 69 20.4 67 19.5 95 95 NE 9 15 29.83 1010 10 16.0934 N/A
8:15 am 08:15 Sunny 69 20.8 68 19.8 94 94 ENE 10 17 29.83 1010 10 16.0934 N/A
8:35 am 08:35 Sunny 70 21.2 68 20.2 94 94 ENE 9 15 29.85 1011 7 11.26538 N/A
8:55 am 08:55 Sunny 71 21.6 69 20.6 94 94 ENE 7 11 29.83 1010 7 11.26538 N/A
9:15 am 09:15 Partly Cloudy 72 22 70 21 94 94 E 8 13 29.85 1011 7 11.26538 N/A
9:35 am 09:35 Mostly Cloudy 72 22 68 20.2 90 90 SE 7 11 29.85 1011 10 16.0934 N/A
9:55 am 09:55 Partly Cloudy 73 22.5 68 20 86 86 SSE 5 7 29.83 1010 10 16.0934 0.01 0.254
10:15 am 10:15 Partly Cloudy 73 22.7 68 20.1 85 85 S 6 9 29.83 1010 10 16.0934 N/A
10:35 am 10:35 Partly Cloudy 74 23.3 68 20.2 83 83 SSE 5 7 29.83 1010 10 16.0934 N/A
10:55 am 10:55 Partly Cloudy 74 23.3 67 19.6 80 80 Calm 29.83 1010 10 16.0934 N/A
11:15 am 11:15 Partly Cloudy 75 23.8 67 19.7 78 78 SW 3 6 29.83 1010 10 16.0934 N/A
11:35 am 11:35 Partly Cloudy 76 24.4 67 19.6 75 75 W 3 6 29.83 1010 10 16.0934 N/A
11:55 am 11:55 Mostly Cloudy 76 24.6 68 19.9 75 75 Calm 29.83 1010 10 16.0934 N/A
12:15 pm 12:15 Cloudy 76 24.6 67 19.6 74 74 Calm 29.83 1010 10 16.0934 N/A
12:35 pm 12:35 Cloudy 76 24.5 68 19.8 75 75 NNW 3 6 29.85 1011 10 16.0934 N/A
12:55 pm 12:55 Mostly Cloudy 77 25 69 20.4 76 76 Calm 29.85 1011 10 16.0934 0 0
1:15 pm 13:15 Partly Cloudy 79 26.1 68 20 69 69 Calm 29.85 1011 10 16.0934 N/A
1:35 pm 13:35 Sunny 80 26.7 68 20.2 68 68 SSW 3 6 29.8 1009 10 16.0934 N/A
1:55 pm 13:55 Partly Cloudy 82 27.5 68 20.1 64 64 S 5 7 29.8 1009 10 16.0934 N/A
2:15 pm 14:15 Partly Cloudy 82 27.6 68 19.9 63 63 SSE 5 7 29.8 1009 10 16.0934 N/A
2:35 pm 14:35 Partly Cloudy 81 27.3 67 19.6 63 63 SSE 6 9 29.8 1009 10 16.0934 N/A
2:55 pm 14:55 Partly Cloudy 82 27.6 67 19.7 62 62 SSW 6 9 29.77 1008 10 16.0934 N/A
3:15 pm 15:15 Mostly Cloudy 81 27.3 68 19.9 64 64 SE 6 9 29.77 1008 10 16.0934 N/A
3:35 pm 15:35 Cloudy 81 27 67 19.6 64 64 S 6 9 29.77 1008 10 16.0934 N/A
3:55 pm 15:55 Mostly Cloudy 82 27.8 67 19.7 61 61 SSE 10 17 29.77 1008 10 16.0934 N/A
4:15 pm 16:15 Mostly Cloudy 81 27 68 20.2 66 66 SE 9 15 29.77 1008 10 16.0934 N/A
4:35 pm 16:35 Cloudy 81 27 69 20.3 67 67 SSE 9 15 29.77 1008 10 16.0934 N/A
4:55 pm 16:55 Cloudy 81 27.2 68 20.1 65 65 S 9 15 29.77 1008 10 16.0934 N/A
5:15 pm 17:15 Cloudy 82 27.7 69 20.3 64 64 S 9 15 29.77 1008 10 16.0934 N/A
5:35 pm 17:35 Partly Cloudy 82 28 69 20.3 63 63 SE 8 13 29.77 1008 10 16.0934 N/A
5:55 pm 17:55 Sunny 82 28 67 19.6 60 60 SSE 8 13 29.74 1007 10 16.0934 N/A
6:15 pm 18:15 Sunny 83 28.1 67 19.7 60 60 SE 7 11 29.74 1007 10 16.0934 N/A
6:35 pm 18:35 Sunny 82 28 68 19.9 61 61 SSE 8 13 29.74 1007 10 16.0934 N/A
6:55 pm 18:55 Sunny 82 27.7 68 19.8 62 62 SSE 6 9 29.71 1006 10 16.0934 N/A
7:15 pm 19:15 Sunny 82 27.6 68 20 63 63 SSE 7 11 29.71 1006 10 16.0934 N/A
7:35 pm 19:35 Sunny 82 27.8 68 20.2 63 63 SE 5 7 29.71 1006 10 16.0934 N/A
7:55 pm 19:55 Sunny 82 27.5 68 20 64 64 SE 6 9 29.71 1006 10 16.0934 N/A
8:15 pm 20:15 Sunny 81 27.1 69 20.6 68 68 SSE 5 7 29.71 1006 10 16.0934 N/A
8:35 pm 20:35 Sunny 80 26.5 69 20.6 70 70 SE 5 7 29.74 1007 10 16.0934 N/A
8:55 pm 20:55 Partly Cloudy 79 26.1 69 20.5 71 71 SE 5 7 29.74 1007 10 16.0934 N/A
9:15 pm 21:15 Partly Cloudy 78 25.5 69 20.6 74 74 E 5 7 29.74 1007 10 16.0934 N/A
9:35 pm 21:35 Partly Cloudy 76 24.5 70 21.1 81 81 ESE 5 7 29.77 1008 10 16.0934 N/A
9:55 pm 21:55 Partly Cloudy 77 24.8 70 21.1 80 80 SE 3 6 29.77 1008 10 16.0934 N/A
10:15 pm 22:15 Partly Cloudy 77 24.8 71 21.7 83 83 E 6 9 29.77 1008 10 16.0934 N/A
10:35 pm 22:35 Clear 76 24.2 71 21.7 86 86 ESE 5 7 29.8 1009 10 16.0934 N/A
10:55 pm 22:55 Clear 75 24.1 71 21.8 87 87 SE 6 9 29.77 1008 10 16.0934 N/A
11:15 pm 23:15 Clear 74 23.5 71 21.5 89 89 NE 3 6 29.77 1008 10 16.0934 N/A
11:35 pm 23:35 Clear 73 22.9 71 21.5 92 92 SE 3 6 29.77 1008 7 11.26538 N/A
11:55 pm 23:55 Clear 74 23.1 72 22 94 94 E 7 11 29.77 1008 7 11.26538 N/A

Powered by AerisWeather